| time (UTC) | temp F | wind direction | speed MPH | gust MPH | rain 1hr in | rain 24hr in | rain mn in | humidity % | barometer mb |
| 20260831193916 | 73 | 0.0 | 0.0 | 0.20 | 0.32 | 0.32 | 96 | 1010.1 | |
| 20260831193416 | 73 | 0.0 | 0.0 | 0.20 | 0.32 | 0.32 | 96 | 1010.1 | |
| 20260831192916 | 74 | 66 | 0.0 | 1.0 | 0.23 | 0.32 | 0.32 | 95 | 1009.9 |
| 20260831192437 | 74 | 197 | 0.0 | 0.0 | 0.13 | 0.23 | 0.23 | 95 | 1011.0 |
| 20260831191936 | 74 | 0.0 | 0.0 | 0.09 | 0.19 | 0.19 | 95 | 1011.0 | |
| 20260831191416 | 74 | 139 | 1.0 | 1.0 | 0.11 | 0.18 | 0.18 | 93 | 1010.6 |
| 20260831190916 | 74 | 0.0 | 0.0 | 0.11 | 0.16 | 0.16 | 94 | 1010.6 | |
| 20260831190436 | 74 | 124 | 0.0 | 0.0 | 0.10 | 0.15 | 0.15 | 93 | 1010.8 |
| 20260831190017 | 73 | 0.0 | 0.0 | 0.08 | 0.13 | 0.13 | 94 | 1010.9 | |
| 20260831185816 | 73 | 134 | 1.0 | 1.0 | 0.08 | 0.13 | 0.13 | 94 | 1010.8 |
| 20260831185316 | 73 | 0.0 | 0.0 | 0.08 | 0.13 | 0.13 | 95 | 1010.9 | |
| 20260831184216 | 74 | 136 | 0.0 | 1.0 | 0.08 | 0.13 | 0.13 | 93 | 1011.0 |
| 20260831183717 | 75 | 135 | 1.0 | 2.0 | 0.08 | 0.13 | 0.13 | 91 | 1011.5 |
| 20260831183217 | 76 | 0.0 | 0.0 | 0.06 | 0.11 | 0.11 | 89 | 1011.8 | |
| 20260831182717 | 76 | 0.0 | 0.0 | 0.05 | 0.10 | 0.10 | 86 | 1011.7 | |
| 20260831182217 | 77 | 0.0 | 0.0 | 0.05 | 0.10 | 0.10 | 84 | 1011.5 | |
| 20260831181717 | 78 | 59 | 0.0 | 0.0 | 0.05 | 0.10 | 0.10 | 82 | 1011.5 |
| 20260831181217 | 78 | 272 | 1.0 | 1.0 | 0.00 | 0.05 | 0.05 | 75 | 1011.8 |
| 20260831180718 | 78 | 260 | 2.0 | 3.0 | 0.00 | 0.05 | 0.05 | 76 | 1011.1 |
| 20260831180237 | 78 | 92 | 1.0 | 1.0 | 0.00 | 0.05 | 0.05 | 77 | 1010.8 |
| 20260831175717 | 78 | 358 | 1.0 | 1.0 | 0.00 | 0.05 | 0.05 | 77 | 1010.9 |
| 20260831175218 | 78 | 68 | 1.0 | 2.0 | 0.00 | 0.05 | 0.05 | 75 | 1011.0 |
| 20260831174718 | 79 | 36 | 0.0 | 0.0 | 0.00 | 0.05 | 0.05 | 75 | 1011.1 |
| 20260831174218 | 79 | 66 | 2.0 | 3.0 | 0.00 | 0.05 | 0.05 | 73 | 1011.1 |
| 20260831173718 | 80 | 103 | 2.0 | 2.0 | 0.00 | 0.05 | 0.05 | 73 | 1011.1 |
| 20260831173215 | 80 | 162 | 1.0 | 2.0 | 0.00 | 0.05 | 0.05 | 72 | 1011.0 |
| 20260831172715 | 80 | 115 | 1.0 | 2.0 | 0.00 | 0.05 | 0.05 | 72 | 1011.0 |
| 20260831172218 | 79 | 124 | 1.0 | 2.0 | 0.00 | 0.05 | 0.05 | 73 | 1011.2 |
| 20260831171718 | 79 | 4 | 0.0 | 1.0 | 0.00 | 0.05 | 0.05 | 76 | 1011.3 |
| 20260831171218 | 78 | 248 | 2.0 | 4.0 | 0.00 | 0.05 | 0.05 | 75 | 1011.3 |
| 20260831170715 | 78 | 324 | 2.0 | 6.0 | 0.00 | 0.05 | 0.05 | 77 | 1011.2 |
| 20260831170218 | 77 | 155 | 2.0 | 3.0 | 0.00 | 0.05 | 0.05 | 79 | 1011.3 |
| 20260831165742 | 76 | 78 | 0.0 | 2.0 | 0.00 | 0.05 | 0.05 | 79 | 1011.4 |
| 20260831165215 | 76 | 147 | 1.0 | 2.0 | 0.00 | 0.05 | 0.05 | 79 | 1011.6 |
| 20260831164719 | 75 | 149 | 2.0 | 4.0 | 0.00 | 0.05 | 0.05 | 83 | 1011.7 |
| 20260831164218 | 75 | 112 | 0.0 | 0.0 | 0.00 | 0.05 | 0.05 | 83 | 1011.8 |
| 20260831163718 | 75 | 127 | 0.0 | 1.0 | 0.00 | 0.05 | 0.05 | 82 | 1011.8 |
| 20260831163219 | 74 | 156 | 1.0 | 3.0 | 0.00 | 0.05 | 0.05 | 86 | 1011.9 |
| 20260831162719 | 74 | 99 | 1.0 | 1.0 | 0.00 | 0.05 | 0.05 | 85 | 1012.1 |
| 20260831162218 | 74 | 65 | 1.0 | 2.0 | 0.00 | 0.05 | 0.05 | 87 | 1012.0 |
| 20260831161719 | 74 | 0.0 | 0.0 | 0.00 | 0.05 | 0.05 | 86 | 1012.0 | |
| 20260831161219 | 73 | 104 | 1.0 | 2.0 | 0.00 | 0.05 | 0.05 | 88 | 1012.2 |
| 20260831160719 | 73 | 125 | 0.0 | 0.0 | 0.01 | 0.05 | 0.05 | 88 | 1012.2 |
| 20260831160219 | 73 | 117 | 2.0 | 2.0 | 0.01 | 0.05 | 0.05 | 89 | 1012.2 |
| 20260831155719 | 73 | 226 | 0.0 | 1.0 | 0.01 | 0.05 | 0.05 | 89 | 1012.3 |
| 20260831155219 | 72 | 59 | 1.0 | 2.0 | 0.01 | 0.05 | 0.05 | 91 | 1012.4 |
| 20260831154739 | 72 | 98 | 1.0 | 1.0 | 0.01 | 0.05 | 0.05 | 92 | 1012.4 |
| 20260831154219 | 72 | 0.0 | 0.0 | 0.01 | 0.05 | 0.05 | 92 | 1012.4 | |
| 20260831153721 | 71 | 126 | 1.0 | 2.0 | 0.01 | 0.05 | 0.05 | 92 | 1012.4 |
| 20260831153220 | 71 | 70 | 0.0 | 1.0 | 0.01 | 0.05 | 0.05 | 93 | 1012.5 |
| 20260831152720 | 71 | 0.0 | 0.0 | 0.03 | 0.05 | 0.05 | 93 | 1012.6 | |
| 20260831152239 | 71 | 180 | 1.0 | 1.0 | 0.04 | 0.05 | 0.05 | 93 | 1012.5 |
| 20260831151740 | 71 | 144 | 1.0 | 2.0 | 0.04 | 0.05 | 0.05 | 93 | 1012.6 |
| 20260831151220 | 71 | 0.0 | 0.0 | 0.04 | 0.05 | 0.05 | 94 | 1012.7 | |
| 20260831150720 | 71 | 0.0 | 0.0 | 0.04 | 0.04 | 0.04 | 94 | 1012.6 | |
| 20260831150240 | 71 | 120 | 1.0 | 2.0 | 0.04 | 0.04 | 0.04 | 94 | 1012.5 |
| 20260831145740 | 71 | 0.0 | 0.0 | 0.04 | 0.04 | 0.04 | 94 | 1012.7 | |
| 20260831145220 | 71 | 0.0 | 0.0 | 0.04 | 0.04 | 0.04 | 94 | 1012.8 | |
| 20260831144720 | 71 | 253 | 0.0 | 0.0 | 0.04 | 0.04 | 0.04 | 94 | 1012.6 |
| 20260831144220 | 71 | 172 | 1.0 | 1.0 | 0.03 | 0.04 | 0.04 | 93 | 1013.0 |
| 20260831143723 | 72 | 119 | 0.0 | 1.0 | 0.03 | 0.04 | 0.04 | 91 | 1013.0 |
| 20260831143241 | 72 | 103 | 0.0 | 1.0 | 0.03 | 0.04 | 0.04 | 90 | 1013.1 |
| 20260831142721 | 72 | 148 | 0.0 | 1.0 | 0.02 | 0.02 | 0.02 | 87 | 1013.2 |
| 20260831142301 | 72 | 270 | 1.0 | 2.0 | 0.01 | 0.01 | 0.01 | 89 | 1013.0 |
| 20260831141741 | 72 | 0.0 | 0.0 | 0.00 | 0.01 | 0.00 | 89 | 1013.0 | |
| 20260831141301 | 72 | 0.0 | 0.0 | 0.00 | 0.01 | 0.00 | 87 | 1012.6 | |
| 20260831140721 | 72 | 0.0 | 0.0 | 0.00 | 0.01 | 0.00 | 88 | 1012.5 | |
| 20260831140221 | 72 | 131 | 0.0 | 0.0 | 0.00 | 0.01 | 0.00 | 88 | 1012.1 |
| 20260831135721 | 72 | 0.0 | 0.0 | 0.00 | 0.01 | 0.00 | 89 | 1012.6 | |
| 20260831135221 | 72 | 0.0 | 0.0 | 0.00 | 0.02 | 0.00 | 89 | 1012.6 | |
| 20260831134721 | 72 | 0.0 | 0.0 | 0.00 | 0.03 | 0.00 | 89 | 1012.5 | |
| 20260831134241 | 72 | 0.0 | 0.0 | 0.00 | 0.04 | 0.00 | 89 | 1012.6 | |
| 20260831133721 | 72 | 0.0 | 0.0 | 0.00 | 0.05 | 0.00 | 89 | 1012.6 | |
| 20260831133221 | 72 | 0.0 | 0.0 | 0.00 | 0.08 | 0.00 | 89 | 1012.5 | |
| 20260831132721 | 72 | 0.0 | 0.0 | 0.00 | 0.18 | 0.00 | 89 | 1012.5 | |
| 20260831132222 | 72 | 0.0 | 0.0 | 0.00 | 0.21 | 0.00 | 89 | 1012.7 | |
| 20260831131722 | 72 | 0.0 | 0.0 | 0.00 | 0.21 | 0.00 | 88 | 1012.7 | |
| 20260831131222 | 72 | 44 | 1.0 | 1.0 | 0.00 | 0.21 | 0.00 | 88 | 1012.5 |
| 20260831130722 | 72 | 0.0 | 0.0 | 0.00 | 0.21 | 0.00 | 88 | 1012.6 | |
| 20260831130222 | 72 | 0.0 | 0.0 | 0.00 | 0.24 | 0.00 | 87 | 1012.5 | |
| 20260831125723 | 72 | 0.0 | 0.0 | 0.00 | 0.27 | 0.00 | 87 | 1012.6 | |
| 20260831125242 | 72 | 254 | 0.0 | 0.0 | 0.00 | 0.30 | 0.00 | 86 | 1012.7 |
| 20260831124722 | 72 | 0.0 | 0.0 | 0.00 | 0.35 | 0.00 | 87 | 1012.7 | |
| 20260831124223 | 71 | 238 | 1.0 | 2.0 | 0.00 | 0.38 | 0.00 | 87 | 1012.6 |
| 20260831123742 | 71 | 0.0 | 0.0 | 0.00 | 0.39 | 0.00 | 89 | 1012.7 | |
| 20260831123223 | 71 | 0.0 | 0.0 | 0.00 | 0.43 | 0.00 | 89 | 1012.7 | |
| 20260831122743 | 71 | 98 | 0.0 | 0.0 | 0.00 | 0.47 | 0.00 | 89 | 1012.6 |
| 20260831122223 | 71 | 0.0 | 0.0 | 0.00 | 0.54 | 0.00 | 89 | 1012.6 | |
| 20260831121743 | 70 | 0.0 | 0.0 | 0.00 | 0.58 | 0.00 | 90 | 1012.6 | |
| 20260831121243 | 70 | 0.0 | 0.0 | 0.00 | 0.62 | 0.00 | 90 | 1012.5 | |
| 20260831120723 | 70 | 0.0 | 0.0 | 0.00 | 0.67 | 0.00 | 90 | 1012.5 | |
| 20260831120223 | 70 | 233 | 0.0 | 0.0 | 0.00 | 0.69 | 0.00 | 90 | 1012.7 |
| 20260831115723 | 70 | 229 | 0.0 | 1.0 | 0.00 | 0.73 | 0.00 | 91 | 1012.6 |
| 20260831115223 | 70 | 0.0 | 0.0 | 0.00 | 0.75 | 0.00 | 92 | 1012.5 | |
| 20260831114723 | 69 | 0.0 | 0.0 | 0.00 | 0.77 | 0.00 | 93 | 1012.4 | |
| 20260831114223 | 69 | 251 | 1.0 | 1.0 | 0.00 | 0.79 | 0.00 | 94 | 1012.4 |
| 20260831113723 | 69 | 0.0 | 0.0 | 0.00 | 0.80 | 0.00 | 95 | 1012.4 | |
| 20260831113223 | 69 | 0.0 | 0.0 | 0.00 | 0.82 | 0.00 | 95 | 1012.3 | |
| 20260831112724 | 68 | 0.0 | 0.0 | 0.00 | 0.83 | 0.00 | 96 | 1012.2 | |
| 20260831112223 | 68 | 0.0 | 0.0 | 0.00 | 0.84 | 0.00 | 96 | 1012.1 | |
| 20260831111724 | 68 | 0.0 | 0.0 | 0.00 | 0.85 | 0.00 | 96 | 1011.9 | |
| 20260831111224 | 68 | 0.0 | 0.0 | 0.00 | 0.85 | 0.00 | 96 | 1011.8 | |
| 20260831110724 | 68 | 0.0 | 0.0 | 0.00 | 0.85 | 0.00 | 96 | 1011.8 | |
| 20260831110224 | 68 | 0.0 | 0.0 | 0.00 | 0.86 | 0.00 | 96 | 1011.8 | |
| 20260831105724 | 68 | 0.0 | 0.0 | 0.00 | 0.86 | 0.00 | 96 | 1011.8 | |
| 20260831105224 | 68 | 0.0 | 0.0 | 0.00 | 0.86 | 0.00 | 96 | 1011.8 | |
| 20260831104724 | 68 | 0.0 | 0.0 | 0.00 | 0.87 | 0.00 | 96 | 1012.0 | |
| 20260831104224 | 68 | 0.0 | 0.0 | 0.00 | 0.87 | 0.00 | 96 | 1012.0 | |
| 20260831103806 | 68 | 0.0 | 0.0 | 0.00 | 0.88 | 0.00 | 95 | 1012.0 | |
| 20260831103244 | 68 | 0.0 | 0.0 | 0.00 | 0.88 | 0.00 | 95 | 1012.1 | |
| 20260831102724 | 68 | 0.0 | 0.0 | 0.00 | 0.88 | 0.00 | 95 | 1012.2 | |
| 20260831102224 | 68 | 0.0 | 0.0 | 0.00 | 0.88 | 0.00 | 95 | 1012.2 | |
| 20260831101725 | 69 | 0.0 | 0.0 | 0.00 | 0.88 | 0.00 | 95 | 1012.2 | |
| 20260831101244 | 69 | 0.0 | 0.0 | 0.00 | 0.88 | 0.00 | 94 | 1012.2 | |
| 20260831100745 | 69 | 0.0 | 0.0 | 0.00 | 0.88 | 0.00 | 94 | 1012.3 | |
| 20260831100225 | 69 | 0.0 | 0.0 | 0.00 | 0.88 | 0.00 | 94 | 1012.3 | |
| 20260831095725 | 69 | 0.0 | 0.0 | 0.00 | 0.88 | 0.00 | 94 | 1012.3 | |
| 20260831095225 | 69 | 0.0 | 0.0 | 0.00 | 0.88 | 0.00 | 94 | 1012.4 | |
| 20260831094725 | 69 | 0.0 | 0.0 | 0.00 | 0.88 | 0.00 | 94 | 1012.4 | |
| 20260831094225 | 69 | 0.0 | 0.0 | 0.00 | 0.88 | 0.00 | 94 | 1012.4 | |
| 20260831093725 | 69 | 0.0 | 0.0 | 0.00 | 0.93 | 0.00 | 94 | 1012.5 | |
| 20260831093245 | 69 | 0.0 | 0.0 | 0.00 | 0.95 | 0.00 | 94 | 1012.6 | |
| 20260831092725 | 69 | 0.0 | 0.0 | 0.00 | 0.97 | 0.00 | 94 | 1012.6 | |
| 20260831092225 | 69 | 0.0 | 0.0 | 0.00 | 1.02 | 0.00 | 94 | 1012.7 | |
| 20260831091726 | 69 | 0.0 | 0.0 | 0.00 | 1.06 | 0.00 | 95 | 1012.7 | |
| 20260831091245 | 69 | 0.0 | 0.0 | 0.00 | 1.06 | 0.00 | 95 | 1012.7 | |
| 20260831090726 | 69 | 8 | 0.0 | 0.0 | 0.00 | 1.06 | 0.00 | 94 | 1012.7 |
| 20260831090226 | 69 | 0.0 | 0.0 | 0.00 | 1.06 | 0.00 | 94 | 1012.6 | |
| 20260831085726 | 69 | 0.0 | 0.0 | 0.00 | 1.06 | 0.00 | 94 | 1012.5 | |
| 20260831085226 | 69 | 0.0 | 0.0 | 0.00 | 1.06 | 0.00 | 94 | 1012.5 | |
| 20260831084726 | 69 | 0.0 | 0.0 | 0.00 | 1.06 | 0.00 | 94 | 1012.5 | |
| 20260831084246 | 69 | 0.0 | 0.0 | 0.00 | 1.06 | 0.00 | 94 | 1012.3 | |
| 20260831083726 | 69 | 0.0 | 0.0 | 0.00 | 1.06 | 0.00 | 94 | 1012.3 | |
| 20260831083226 | 69 | 0.0 | 0.0 | 0.00 | 1.06 | 0.00 | 93 | 1012.3 | |
| 20260831082746 | 69 | 0.0 | 0.0 | 0.00 | 1.06 | 0.00 | 93 | 1012.4 | |
| 20260831082226 | 69 | 0.0 | 0.0 | 0.00 | 1.06 | 0.00 | 94 | 1012.3 | |
| 20260831081727 | 69 | 0.0 | 0.0 | 0.00 | 1.06 | 0.00 | 93 | 1012.4 | |
| 20260831081226 | 69 | 0.0 | 0.0 | 0.00 | 1.06 | 0.00 | 93 | 1012.4 | |
| 20260831080727 | 69 | 0.0 | 0.0 | 0.00 | 1.07 | 0.00 | 93 | 1012.3 | |
| 20260831080226 | 69 | 0.0 | 0.0 | 0.00 | 1.07 | 0.00 | 93 | 1012.3 | |
| 20260831075727 | 69 | 0.0 | 0.0 | 0.00 | 1.07 | 0.00 | 93 | 1012.3 | |
| 20260831075227 | 69 | 0.0 | 0.0 | 0.00 | 1.07 | 0.00 | 92 | 1012.4 | |
| 20260831074727 | 69 | 0.0 | 0.0 | 0.00 | 1.07 | 0.00 | 92 | 1012.5 | |
| 20260831074227 | 69 | 0.0 | 0.0 | 0.00 | 1.07 | 0.00 | 92 | 1012.4 | |
| 20260831073727 | 70 | 0.0 | 0.0 | 0.00 | 1.07 | 0.00 | 92 | 1012.5 | |
| 20260831073227 | 70 | 0.0 | 0.0 | 0.00 | 1.07 | 0.00 | 92 | 1012.5 | |
| 20260831072747 | 70 | 0.0 | 0.0 | 0.00 | 1.07 | 0.00 | 92 | 1012.5 | |
| 20260831072227 | 70 | 0.0 | 0.0 | 0.00 | 1.07 | 0.00 | 91 | 1012.6 | |
| 20260831071728 | 70 | 0.0 | 0.0 | 0.00 | 1.07 | 0.00 | 91 | 1012.7 | |
| 20260831071248 | 70 | 0.0 | 0.0 | 0.00 | 1.07 | 0.00 | 91 | 1012.7 | |
| 20260831070728 | 70 | 0.0 | 0.0 | 0.00 | 1.07 | 0.00 | 91 | 1012.8 | |
| 20260831070228 | 70 | 0.0 | 0.0 | 0.00 | 1.07 | 0.00 | 91 | 1012.8 | |
| 20260831065728 | 70 | 0.0 | 0.0 | 0.00 | 1.07 | 0.00 | 90 | 1012.8 | |
| 20260831065228 | 70 | 0.0 | 0.0 | 0.00 | 1.07 | 0.00 | 90 | 1012.8 | |
| 20260831064728 | 70 | 0.0 | 0.0 | 0.00 | 1.07 | 0.00 | 90 | 1012.7 | |
| 20260831064228 | 70 | 0.0 | 0.0 | 0.00 | 1.07 | 0.00 | 90 | 1012.7 | |
| 20260831063728 | 70 | 326 | 0.0 | 0.0 | 0.00 | 1.07 | 0.00 | 90 | 1012.7 |
| 20260831063228 | 70 | 0.0 | 0.0 | 0.00 | 1.07 | 0.00 | 90 | 1012.6 | |
| 20260831062728 | 70 | 0.0 | 0.0 | 0.00 | 1.07 | 0.00 | 90 | 1012.4 | |
| 20260831062228 | 70 | 0.0 | 0.0 | 0.00 | 1.07 | 0.00 | 90 | 1012.3 | |
| 20260831061749 | 70 | 0.0 | 0.0 | 0.00 | 1.07 | 0.00 | 90 | 1012.2 | |
| 20260831061228 | 70 | 0.0 | 0.0 | 0.00 | 1.07 | 0.00 | 90 | 1012.3 | |
| 20260831060729 | 70 | 0.0 | 0.0 | 0.00 | 1.07 | 0.00 | 90 | 1012.3 | |
| 20260831060228 | 70 | 0.0 | 0.0 | 0.00 | 1.07 | 0.00 | 90 | 1012.4 | |
| 20260831055729 | 70 | 0.0 | 0.0 | 0.00 | 1.07 | 0.00 | 90 | 1012.4 | |
| 20260831055229 | 70 | 0.0 | 0.0 | 0.00 | 1.08 | 0.00 | 90 | 1012.4 | |
| 20260831054729 | 70 | 0.0 | 0.0 | 0.00 | 1.09 | 0.00 | 90 | 1012.5 | |
| 20260831054229 | 70 | 0.0 | 0.0 | 0.00 | 1.09 | 0.00 | 90 | 1012.5 | |
| 20260831053749 | 70 | 0.0 | 0.0 | 0.00 | 1.09 | 0.00 | 90 | 1012.6 | |
| 20260831053229 | 70 | 0.0 | 0.0 | 0.00 | 1.09 | 0.00 | 90 | 1012.6 | |
| 20260831052729 | 70 | 0.0 | 0.0 | 0.00 | 1.09 | 0.00 | 90 | 1012.5 | |
| 20260831052249 | 70 | 0.0 | 0.0 | 0.00 | 1.09 | 0.00 | 90 | 1012.4 | |
| 20260831051749 | 70 | 0.0 | 0.0 | 0.00 | 1.09 | 0.00 | 90 | 1012.4 | |
| 20260831051229 | 70 | 0.0 | 0.0 | 0.00 | 1.09 | 0.00 | 90 | 1012.5 | |
| 20260831050730 | 70 | 0.0 | 0.0 | 0.00 | 1.09 | 0.00 | 90 | 1012.6 | |
| 20260831050229 | 70 | 0.0 | 0.0 | 0.00 | 1.09 | 0.00 | 90 | 1012.6 | |
| 20260831045718 | 70 | 0.0 | 0.0 | 0.00 | 1.09 | 0.00 | 90 | 1012.6 | |
| 20260831045215 | 70 | 0.0 | 0.0 | 0.00 | 1.09 | 0.00 | 90 | 1012.6 | |
| 20260831044715 | 70 | 130 | 0.0 | 2.0 | 0.00 | 1.09 | 0.00 | 90 | 1012.7 |
| 20260831044215 | 70 | 0.0 | 0.0 | 0.00 | 1.09 | 0.00 | 90 | 1012.8 | |
| 20260831043715 | 71 | 0.0 | 0.0 | 0.00 | 1.09 | 0.00 | 90 | 1012.9 | |
| 20260831043215 | 71 | 0.0 | 0.0 | 0.00 | 1.09 | 0.00 | 90 | 1012.9 | |
| 20260831042715 | 71 | 0.0 | 0.0 | 0.00 | 1.09 | 0.00 | 90 | 1012.8 | |
| 20260831042216 | 71 | 0.0 | 0.0 | 0.00 | 1.09 | 0.00 | 90 | 1012.8 | |
| 20260831041736 | 71 | 0.0 | 0.0 | 0.00 | 1.09 | 0.00 | 89 | 1012.8 | |
| 20260831041216 | 71 | 0.0 | 0.0 | 0.00 | 1.09 | 0.00 | 89 | 1012.8 | |
| 20260831040716 | 71 | 0.0 | 0.0 | 0.00 | 1.09 | 0.00 | 89 | 1012.7 | |
| 20260831040216 | 71 | 77 | 0.0 | 0.0 | 0.00 | 1.09 | 0.00 | 89 | 1012.7 |
| 20260831035716 | 71 | 126 | 0.0 | 1.0 | 0.00 | 1.09 | 1.09 | 89 | 1012.7 |
| 20260831035216 | 71 | 0.0 | 0.0 | 0.00 | 1.09 | 1.09 | 88 | 1012.7 | |
| 20260831034716 | 71 | 0.0 | 0.0 | 0.00 | 1.09 | 1.09 | 88 | 1012.8 | |
| 20260831034216 | 71 | 0.0 | 0.0 | 0.00 | 1.09 | 1.09 | 88 | 1012.7 | |
| 20260831033736 | 71 | 59 | 0.0 | 0.0 | 0.00 | 1.09 | 1.09 | 88 | 1012.6 |
| 20260831033216 | 71 | 0.0 | 0.0 | 0.00 | 1.09 | 1.09 | 88 | 1012.6 | |
| 20260831032716 | 71 | 0.0 | 0.0 | 0.00 | 1.09 | 1.09 | 88 | 1012.6 | |
| 20260831032216 | 71 | 0.0 | 0.0 | 0.00 | 1.09 | 1.09 | 88 | 1012.5 | |
| 20260831031716 | 71 | 0.0 | 0.0 | 0.00 | 1.09 | 1.09 | 89 | 1012.7 | |
| 20260831031217 | 71 | 0.0 | 0.0 | 0.00 | 1.09 | 1.09 | 88 | 1012.6 | |
| 20260831030717 | 71 | 0.0 | 0.0 | 0.00 | 1.09 | 1.09 | 88 | 1012.6 | |
| 20260831030237 | 72 | 139 | 0.0 | 3.0 | 0.00 | 1.09 | 1.09 | 87 | 1012.7 |
| 20260831025715 | 72 | 0.0 | 0.0 | 0.00 | 1.09 | 1.09 | 87 | 1012.7 | |
| 20260831025216 | 72 | 0.0 | 0.0 | 0.00 | 1.09 | 1.09 | 86 | 1012.8 | |
| 20260831024716 | 72 | 93 | 0.0 | 1.0 | 0.00 | 1.09 | 1.09 | 86 | 1012.8 |
| 20260831024216 | 73 | 0.0 | 0.0 | 0.00 | 1.09 | 1.09 | 85 | 1012.8 | |
| 20260831023716 | 73 | 0.0 | 0.0 | 0.00 | 1.09 | 1.09 | 84 | 1012.8 | |
| 20260831023256 | 73 | 0.0 | 0.0 | 0.00 | 1.09 | 1.09 | 84 | 1012.8 | |
| 20260831022716 | 73 | 272 | 0.0 | 1.0 | 0.00 | 1.09 | 1.09 | 84 | 1012.8 |
| 20260831022216 | 73 | 0.0 | 0.0 | 0.00 | 1.09 | 1.09 | 85 | 1012.6 | |
| 20260831021736 | 73 | 0.0 | 0.0 | 0.00 | 1.09 | 1.09 | 84 | 1012.2 | |
| 20260831021216 | 73 | 0.0 | 0.0 | 0.00 | 1.09 | 1.09 | 83 | 1012.0 | |
| 20260831020716 | 73 | 0.0 | 0.0 | 0.00 | 1.09 | 1.09 | 83 | 1012.1 | |
| 20260831020216 | 73 | 0.0 | 0.0 | 0.00 | 1.09 | 1.09 | 82 | 1012.1 | |
| 20260831015736 | 74 | 0.0 | 0.0 | 0.00 | 1.09 | 1.09 | 83 | 1012.2 | |
| 20260831015217 | 74 | 0.0 | 0.0 | 0.00 | 1.09 | 1.09 | 82 | 1012.3 | |
| 20260831014717 | 74 | 0.0 | 0.0 | 0.00 | 1.09 | 1.09 | 82 | 1012.3 | |
| 20260831014235 | 74 | 105 | 0.0 | 0.0 | 0.00 | 1.09 | 1.09 | 82 | 1012.3 |
| 20260831013715 | 74 | 305 | 0.0 | 1.0 | 0.00 | 1.09 | 1.09 | 81 | 1012.4 |
| 20260831013255 | 74 | 351 | 0.0 | 1.0 | 0.00 | 1.09 | 1.09 | 81 | 1012.2 |
| 20260831012715 | 74 | 351 | 1.0 | 3.0 | 0.00 | 1.09 | 1.09 | 82 | 1012.1 |
| 20260831012215 | 74 | 34 | 0.0 | 2.0 | 0.00 | 1.09 | 1.09 | 82 | 1012.1 |
| 20260831011716 | 74 | 231 | 1.0 | 2.0 | 0.00 | 1.09 | 1.09 | 82 | 1012.1 |
| 20260831011216 | 74 | 140 | 0.0 | 1.0 | 0.00 | 1.09 | 1.09 | 82 | 1012.1 |
| 20260831010716 | 74 | 0.0 | 0.0 | 0.00 | 1.09 | 1.09 | 82 | 1012.0 | |
| 20260831010216 | 74 | 0.0 | 0.0 | 0.00 | 1.09 | 1.09 | 82 | 1012.0 | |
| 20260831005736 | 74 | 0.0 | 0.0 | 0.00 | 1.09 | 1.09 | 82 | 1011.9 | |
| 20260831005216 | 74 | 0.0 | 0.0 | 0.00 | 1.09 | 1.09 | 81 | 1011.9 | |
| 20260831004736 | 74 | 0.0 | 0.0 | 0.00 | 1.09 | 1.09 | 82 | 1011.9 | |
| 20260831004236 | 74 | 0.0 | 0.0 | 0.00 | 1.09 | 1.09 | 82 | 1011.9 | |
| 20260831003716 | 75 | 0.0 | 0.0 | 0.00 | 1.09 | 1.09 | 80 | 1011.8 | |
| 20260831003257 | 75 | 0.0 | 0.0 | 0.00 | 1.09 | 1.09 | 80 | 1011.7 | |
| 20260831002716 | 75 | 0.0 | 0.0 | 0.00 | 1.09 | 1.09 | 80 | 1011.7 | |
| 20260831002216 | 75 | 0.0 | 0.0 | 0.00 | 1.09 | 1.09 | 80 | 1011.7 | |
| 20260831001717 | 75 | 0.0 | 0.0 | 0.00 | 1.09 | 1.09 | 81 | 1011.6 | |
| 20260831001216 | 75 | 344 | 1.0 | 2.0 | 0.00 | 1.09 | 1.09 | 79 | 1011.6 |
| 20260831000717 | 75 | 321 | 2.0 | 5.0 | 0.00 | 1.09 | 1.09 | 79 | 1011.8 |
| 20260831000218 | 76 | 101 | 0.0 | 2.0 | 0.00 | 1.09 | 1.09 | 80 | 1011.8 |
| 20260830235717 | 76 | 295 | 0.0 | 1.0 | 0.00 | 1.09 | 1.09 | 78 | 1011.8 |
| 20260830235217 | 76 | 244 | 3.0 | 4.0 | 0.00 | 1.09 | 1.09 | 78 | 1011.9 |
| 20260830234717 | 76 | 274 | 0.0 | 2.0 | 0.00 | 1.09 | 1.09 | 78 | 1011.8 |
| 20260830234217 | 76 | 248 | 0.0 | 0.0 | 0.00 | 1.09 | 1.09 | 77 | 1011.8 |
| 20260830233717 | 76 | 41 | 2.0 | 3.0 | 0.00 | 1.09 | 1.09 | 77 | 1011.8 |
| 20260830233217 | 76 | 275 | 2.0 | 3.0 | 0.00 | 1.09 | 1.09 | 77 | 1011.7 |
| 20260830232817 | 76 | 325 | 4.0 | 7.0 | 0.00 | 1.09 | 1.09 | 77 | 1011.6 |
| 20260830232218 | 77 | 249 | 1.0 | 2.0 | 0.00 | 1.09 | 1.09 | 76 | 1011.7 |
| 20260830231737 | 77 | 24 | 1.0 | 3.0 | 0.00 | 1.09 | 1.09 | 76 | 1011.7 |
| 20260830231218 | 77 | 148 | 1.0 | 3.0 | 0.00 | 1.09 | 1.09 | 75 | 1011.8 |
| 20260830230718 | 77 | 232 | 1.0 | 3.0 | 0.00 | 1.09 | 1.09 | 76 | 1011.7 |
| 20260830230218 | 77 | 252 | 1.0 | 2.0 | 0.00 | 1.09 | 1.09 | 74 | 1011.6 |
| 20260830225718 | 77 | 229 | 3.0 | 4.0 | 0.00 | 1.09 | 1.09 | 74 | 1011.5 |
| 20260830225218 | 77 | 235 | 2.0 | 4.0 | 0.00 | 1.09 | 1.09 | 74 | 1011.6 |
| 20260830224735 | 77 | 248 | 1.0 | 4.0 | 0.00 | 1.09 | 1.09 | 75 | 1011.5 |
| 20260830224215 | 78 | 245 | 2.0 | 3.0 | 0.00 | 1.09 | 1.09 | 75 | 1011.6 |
| 20260830223718 | 78 | 312 | 1.0 | 4.0 | 0.00 | 1.09 | 1.09 | 72 | 1011.6 |
| 20260830223215 | 78 | 227 | 3.0 | 7.0 | 0.00 | 1.09 | 1.09 | 73 | 1011.7 |
| 20260830222716 | 78 | 256 | 3.0 | 5.0 | 0.00 | 1.09 | 1.09 | 73 | 1011.7 |
| 20260830222215 | 78 | 308 | 1.0 | 3.0 | 0.00 | 1.09 | 1.09 | 72 | 1011.8 |
| 20260830221736 | 78 | 304 | 2.0 | 4.0 | 0.00 | 1.09 | 1.09 | 72 | 1011.7 |
| 20260830221236 | 78 | 265 | 4.0 | 7.0 | 0.00 | 1.10 | 1.09 | 72 | 1011.9 |
| 20260830220756 | 0 | 227 | 4.0 | 7.0 | 0.00 | 1.10 | 1.09 | ||
| 20260830220216 | 79 | 97 | 0.0 | 2.0 | 0.00 | 1.10 | 1.09 | 69 | 1011.7 |
| 20260830215736 | 79 | 107 | 2.0 | 4.0 | 0.00 | 1.10 | 1.09 | 68 | 1011.7 |
| 20260830215216 | 79 | 6 | 3.0 | 5.0 | 0.00 | 1.10 | 1.09 | 68 | 1011.7 |
| 20260830214716 | 80 | 328 | 2.0 | 3.0 | 0.00 | 1.10 | 1.09 | 67 | 1011.8 |
| 20260830214236 | 80 | 231 | 1.0 | 4.0 | 0.00 | 1.10 | 1.09 | 66 | 1011.8 |
| 20260830213716 | 80 | 82 | 1.0 | 5.0 | 0.00 | 1.10 | 1.09 | 67 | 1011.8 |
| 20260830213216 | 81 | 214 | 1.0 | 4.0 | 0.00 | 1.10 | 1.09 | 66 | 1011.8 |
| 20260830212717 | 81 | 261 | 2.0 | 4.0 | 0.00 | 1.10 | 1.09 | 65 | 1011.8 |
| 20260830212236 | 81 | 336 | 0.0 | 2.0 | 0.00 | 1.10 | 1.09 | 64 | 1011.8 |
| 20260830211736 | 81 | 196 | 2.0 | 4.0 | 0.00 | 1.10 | 1.09 | 64 | 1011.8 |
| 20260830211216 | 82 | 249 | 2.0 | 4.0 | 0.00 | 1.10 | 1.09 | 62 | 1011.7 |
| 20260830210716 | 82 | 176 | 1.0 | 4.0 | 0.00 | 1.10 | 1.09 | 62 | 1011.7 |
| 20260830210237 | 82 | 192 | 1.0 | 2.0 | 0.00 | 1.10 | 1.09 | 61 | 1011.8 |
| 20260830205717 | 82 | 235 | 1.0 | 4.0 | 0.00 | 1.10 | 1.09 | 61 | 1011.8 |
| 20260830205236 | 82 | 242 | 1.0 | 2.0 | 0.00 | 1.10 | 1.09 | 59 | 1011.8 |
| 20260830204717 | 82 | 233 | 3.0 | 6.0 | 0.00 | 1.10 | 1.09 | 59 | 1011.9 |
| 20260830204217 | 82 | 18 | 1.0 | 3.0 | 0.00 | 1.10 | 1.09 | 58 | 1011.7 |
| 20260830203717 | 82 | 1 | 4.0 | 6.0 | 0.00 | 1.10 | 1.09 | 58 | 1011.9 |
| 20260830203217 | 82 | 34 | 2.0 | 4.0 | 0.00 | 1.10 | 1.09 | 58 | 1011.8 |
| 20260830202738 | 82 | 241 | 4.0 | 7.0 | 0.00 | 1.10 | 1.09 | 57 | 1011.7 |
| 20260830202217 | 82 | 255 | 1.0 | 2.0 | 0.00 | 1.10 | 1.09 | 57 | 1011.9 |
| 20260830201737 | 82 | 296 | 3.0 | 7.0 | 0.00 | 1.10 | 1.09 | 56 | 1011.7 |
| 20260830201220 | 83 | 204 | 2.0 | 5.0 | 0.00 | 1.10 | 1.09 | 58 | 1011.9 |
| 20260830200717 | 83 | 121 | 2.0 | 3.0 | 0.00 | 1.10 | 1.09 | 56 | 1011.7 |
| 20260830200218 | 83 | 218 | 1.0 | 2.0 | 0.00 | 1.10 | 1.09 | 58 | 1011.8 |
| 20260830195718 | 83 | 304 | 2.0 | 5.0 | 0.00 | 1.10 | 1.09 | 58 | 1011.6 |
| 20260830195218 | 83 | 94 | 2.0 | 5.0 | 0.00 | 1.10 | 1.09 | 58 | 1011.7 |
| 20260830194718 | 83 | 27 | 2.0 | 8.0 | 0.00 | 1.10 | 1.09 | 56 | 1011.5 |